Back to catalog

BREEZE-M DEB

TANK

AliveHEO
NORAD 36794·DEBRIS·🇷🇺 Russia

Launched Jul 10, 2010 from Baikonur Cosmodrome

Loading…

Next Passes (next 24 hours)

TLE

FreshSource: Space-Track

Epoch: Sep 14, 2026, 00:27 UTC

1 36794U 10034C   26257.01930041  .00005182  00000-0  12336-2 0  9990
2 36794  49.4726 156.2145 5392593 184.2147 168.2961  4.96005282280010

Track BREEZE-M DEB in real time with AllMySat

Download on the App Store